• Join FlightAware (Why Join?)
  • Login
  • US Flag 
01:31PM EDT


 

Airport Tracker/Info


-or-


 

Live Flight TrackerFlight Track Log ✈ ASQ5685 ✈ 23-Sep-2013 ✈ KATL - KIAD

Flight Track Log - Related Links

Times and Time Zones

All times are in EDT time to prevent confusion due to time zone crossing. See the ASQ5685 flight status page for this flight to view local times or setup timezone preferences in your user account.

Time Position Orientation Groundspeed Altitude Reporting Facility
EDT Latitude Longitude Course Direction KTS MPH feet Rate Location/Type
09:24AM 33.6333 -84.3667 68° East 189 217 2,800  Level Atlanta TRACON
09:25AM 33.6333 -84.2833 90° East 251 289 5,000 2,220 Climbing Atlanta TRACON
09:26AM 33.6333 -84.2000 90° East 284 327 7,100 2,220 Climbing Atlanta TRACON
09:27AM 33.9399 -84.0671 53° Northeast  Level Estimated
09:27AM 33.6333 -84.1000 90° East 289 333 9,500  Level Atlanta TRACON
09:27AM 33.6586 -84.0714 43° Northeast 308 354 10,200 1,020 Climbing Atlanta Center
09:28AM 33.9799 -83.9480 68° East  Level FlightAware Approximate
09:28AM 33.7169 -83.9889 50° Northeast 322 371 11,100  Level Atlanta Center
09:29AM 34.0198 -83.8287 68° East  Level FlightAware Approximate
09:29AM 33.7836 -83.9064 46° Northeast 335 386 12,600  Level Atlanta Center
09:30AM 33.8525 -83.8136 48° Northeast 353 406 14,100 1,440 Climbing Atlanta Center
09:31AM 33.9211 -83.7233 48° Northeast 361 415 15,500 1,380 Climbing Atlanta Center
09:32AM 33.9814 -83.6256 53° Northeast 367 422 16,900 1,320 Climbing Atlanta Center
09:33AM 34.0542 -83.5197 50° Northeast 367 422 18,200 1,380 Climbing Atlanta Center
09:34AM 34.1142 -83.4167 55° Northeast 367 422 19,700 1,320 Climbing Atlanta Center
09:35AM 34.1783 -83.3181 52° Northeast 367 422 20,900 1,020 Climbing Atlanta Center
09:36AM 34.2403 -83.2147 54° Northeast 367 422 21,800 900 Climbing Atlanta Center
09:37AM 34.3064 -83.1108 52° Northeast 380 437 22,700 900 Climbing Atlanta Center
09:38AM 34.3700 -83.0019 55° Northeast 386 444 23,600 900 Climbing Atlanta Center
09:39AM 34.4358 -82.8978 53° Northeast 386 444 24,500 900 Climbing Atlanta Center
09:40AM 34.5017 -82.7911 53° Northeast 393 452 25,500 900 Climbing Atlanta Center
09:41AM 34.5717 -82.6867 51° Northeast 388 447 26,400 720 Climbing Atlanta Center
09:42AM 34.6392 -82.5794 53° Northeast 394 453 27,000 300 Climbing Atlanta Center
09:43AM 34.7067 -82.4672 54° Northeast 400 460 27,000  Level Atlanta Center
09:44AM 34.7761 -82.3547 53° Northeast 406 467 27,000  Level Atlanta Center
09:45AM 34.8433 -82.2444 53° Northeast 411 473 27,000  Level Atlanta Center
09:46AM 34.9128 -82.1314 53° Northeast 411 473 27,000  Level Atlanta Center
09:47AM 34.9797 -82.0208 54° Northeast 411 473 27,000  Level Atlanta Center
09:48AM 35.0447 -81.9128 54° Northeast 406 467 27,000  Level Atlanta Center
09:49AM 35.0992 -81.8072 58° Northeast 406 467 27,000  Level Atlanta Center
09:50AM 35.1597 -81.6914 57° Northeast 401 461 27,000  Level Atlanta Center
09:51AM 35.2181 -81.5803 57° Northeast 401 461 27,000  Level Atlanta Center
09:52AM 35.2803 -81.4614 57° Northeast 401 461 27,000  Level Atlanta Center
09:53AM 35.3403 -81.3475 57° Northeast 396 456 27,000  Level Atlanta Center
09:54AM 35.3983 -81.2311 59° Northeast 396 456 27,000  Level Atlanta Center
09:55AM 35.4581 -81.1142 58° Northeast 396 456 27,000  Level Atlanta Center
09:56AM 35.5200 -80.9972 57° Northeast 396 456 27,000  Level Atlanta Center
09:57AM 35.5817 -80.8825 57° Northeast 396 456 27,000  Level Atlanta Center
09:58AM 35.6411 -80.7653 58° Northeast 396 456 27,000  Level Atlanta Center
09:59AM 35.7006 -80.6506 57° Northeast 396 456 27,000  Level Atlanta Center
10:02AM 35.8436 -80.3683 58° Northeast 401 461 27,000  Level Washington Center
10:03AM 35.9047 -80.2514 57° Northeast 400 460 27,000  Level Washington Center
10:04AM 35.9633 -80.1369 58° Northeast 393 452 27,000  Level Washington Center
10:05AM 36.0261 -80.0222 56° Northeast 393 452 27,000  Level Washington Center
10:06AM 36.0867 -79.9075 57° Northeast 399 459 27,000  Level Washington Center
10:07AM 36.1533 -79.7928 54° Northeast 399 459 27,000  Level Washington Center
10:08AM 36.2178 -79.6778 55° Northeast 409 471 27,000  Level Washington Center
10:09AM 36.2756 -79.5725 56° Northeast 409 471 27,000  Level Washington Center
10:10AM 36.3378 -79.4597 56° Northeast 409 471 27,000  Level Washington Center
10:11AM 36.4019 -79.3442 55° Northeast 409 471 27,000  Level Washington Center
10:12AM 36.4747 -79.2186 54° Northeast 409 471 27,000  Level Washington Center
10:13AM 36.5342 -79.1153 54° Northeast 409 471 27,000 -540 Level Washington Center
10:14AM 36.5978 -79.0017 55° Northeast 404 465 25,900 -900 Descending Washington Center
10:15AM 36.6814 -78.8450 56° Northeast 423 487 25,000 -480 Descending Washington Center
10:16AM 36.7475 -78.7206 56° Northeast 430 495 25,000  Level Washington Center
10:17AM 36.8253 -78.6175 47° Northeast 418 481 25,000  Level Washington Center
10:18AM 36.9253 -78.5331 34° Northeast 392 451 25,000  Level Washington Center
10:19AM 37.0128 -78.4556 35° Northeast 392 451 25,000  Level Washington Center
10:20AM 37.1022 -78.3756 35° Northeast 392 451 25,000 -180 Level Washington Center
10:21AM 37.1917 -78.3006 34° Northeast 387 445 24,700 -840 Descending Washington Center
10:22AM 37.2725 -78.2278 36° Northeast 393 452 23,400 -1,260 Descending Washington Center
10:23AM 37.3619 -78.1447 36° Northeast 393 452 22,200 -720 Descending Washington Center
10:24AM 37.4553 -78.0642 34° Northeast 393 452 22,000 -120 Descending Washington Center
10:25AM 37.5444 -77.9858 35° Northeast 393 452 22,000 -60 Level Washington Center
10:26AM 37.6336 -77.9047 36° Northeast 387 445 21,900 -1,320 Descending Washington Center
10:27AM 37.7231 -77.8208 37° Northeast 387 445 19,500 -2,340 Descending Washington Center
10:28AM 37.8119 -77.7419 35° Northeast 387 445 17,200 -2,280 Descending Washington Center
10:29AM 37.8989 -77.6656 35° Northeast 387 445 14,900 -2,220 Descending Washington Center
10:30AM 37.9794 -77.5886 37° Northeast 382 440 12,900 -1,920 Descending Washington Center
10:31AM 38.0597 -77.5222 33° Northeast 371 427 11,200 -1,440 Descending Washington Center
10:32AM 38.1397 -77.4742 25° Northeast 337 388 10,000 -720 Descending Washington Center
10:33AM 38.2114 -77.4308 25° Northeast 302 348 9,800 -720 Descending Washington Center
10:34AM 38.2808 -77.3903 25° Northeast 279 321 8,600 -1,260 Descending Washington Center
10:35AM 38.3500 -77.3603 19° North 274 315 7,400 -1,260 Descending Washington Center
10:36AM 38.4117 -77.4119 327° Northwest 240 276 6,100 -1,260 Descending Washington Center
10:37AM 38.4758 -77.4456 338° Northwest 240 276 4,900 -1,080 Descending Washington Center
10:38AM 38.5467 -77.4444 North 247 284 4,000 -480 Descending Washington Center
10:39AM 38.6178 -77.4464 359° North 247 284 4,000  Level Washington Center
10:40AM 38.6864 -77.4428 North 247 284 4,000 -60 Level Washington Center
10:41AM 38.7511 -77.4417 North 247 284 3,900 -780 Descending Washington Center
10:42AM 38.8333 -77.4333 North 189 217 2,200 -1,140 Descending Potomac TRACON
10:43AM 38.8833 -77.4333 360° North 141 162 1,300 -840 Descending Potomac TRACON
10:44AM 38.9167 -77.4333 360° North 129 148 600 -720 Descending Potomac TRACON